Regional Weather Roundup
Issued by NWS Wakefield, VA

Home | Current Version | Previous Version | Text Only | Print | Product List | Glossary On
Versions: 1 2 3 4 5 6 7 8 9 10 11 12 13 14 15 16 17 18 19 20 21 22 23 24 25 26 27 28
000
ASUS41 KAKQ 240215
RWRAKQ

REGIONAL WEATHER ROUNDUP
NATIONAL WEATHER SERVICE WAKEFIELD VA
1000 PM EDT SUN APR 23 2017

Note: "fair" indicates few or no clouds below 12,000 feet with no
significant weather and/or obstructions to visibility. * = Denotes
station may not report precipitation (e.g., rain,snow,etc.),
thunder or fog.

VAZ042-051-052>054-056-240300-
NORTHERN VIRGINIA

CITY           SKY/WX    TMP DP  RH WIND       PRES   REMARKS
WASH NATIONAL  CLOUDY    58  45  62 E5        30.11R
DULLES         CLOUDY    54  43  66 SE6       30.10R
FORT BELVOIR   CLOUDY    53  48  84 CALM      30.10R
QUANTICO       CLOUDY    58  48  69 E7        30.11R
FREDERICKSBRG* CLOUDY    54  52  95 CALM      30.09S
STAFFORD*      LGT RAIN  51  51 100 CALM      30.14R
WARRENTON      CLOUDY    54  46  75 CALM      30.09S
CULPEPER*      CLOUDY    53  50  89 CALM      30.11R
MANASSAS*        N/A     54  47  77 E3        30.11R
LEESBURG*      CLOUDY    55  46  71 SE3       30.11S
WINCHESTER     CLOUDY    50  43  76 CALM      30.09S
FRONT ROYAL*   PTCLDY    52  43  71 CALM      30.08S
LURAY*         CLOUDY    50  46  87 CALM      30.08R
$$

VAZ048-049-060>072-079>083-240300-
CENTRAL AND SOUTH CENTRAL VIRGINIA

CITY           SKY/WX    TMP DP  RH WIND       PRES   REMARKS
RICHMOND       LGT RAIN  53  52  96 NE5       30.08F
CHESTERFIELD*  CLOUDY    54  36  50 E6        30.09S
PETERSBURG*    LGT RAIN  52  49  89 E7        30.06F
HANOVER        CLOUDY    52  49  89 CALM      30.10S
TAPPAHANNOCK*  CLOUDY    54  54 100 CALM      30.11R
QUINTON*       CLOUDY    53  53 100 E3        30.09R
CHARLOTTSVILLE LGT RAIN  53  48  83 NE3       30.08R
GORDONSVILLE*  CLOUDY    50  50  98 CALM      30.08S
ORANGE*        CLOUDY    50  48  93 CALM      30.09S
LOUISA*        CLOUDY    54  52  94 NE3       30.07F
BUMPASS*       CLOUDY    50  50 100 CALM      30.09S
FARMVILLE*     CLOUDY    52  52 100 NE8       30.05S
CREWE*         CLOUDY    51  51 100 CALM      30.06R
FORT PICKETT*  CLOUDY   N/A N/A N/A E8        30.06R
CHASE CITY*    CLOUDY    51  49  95 CALM      30.05R
CLARKSVILLE*   CLOUDY    52  52 100 NE6       30.03R
SOUTH HILL*    CLOUDY    51  51 100 NE6       30.09F
LAWRENCEVILLE* CLOUDY    52  51  96 NE5       30.05R
EMPORIA*       DRIZZLE   52  52 100 N7        30.07S
$$

VAZ088>098-240300-
SOUTHEAST VIRGINIA

CITY           SKY/WX    TMP DP  RH WIND       PRES   REMARKS
NORFOLK        CLOUDY    56  49  77 E12       30.05S
VIRGINIA BEACH LGT RAIN  53  49  86 E12       30.05R
NORFOLK NAVAL  LGT RAIN  56  50  80 E15       30.08R
WEST POINT*    CLOUDY    53  51  94 CALM      30.11R
SALUDA*        CLOUDY    55  49  82 E6        30.09S
NEWPORT NEWS   LGT RAIN  54  53  97 E14       30.07R
LANGLEY AFB    CLOUDY    54  50  87 E15       30.06S
FORT EUSTIS    LGT RAIN  54  50  87 E5        30.06R
WILLIAMSBURG*  CLOUDY    54  54 100 CALM      30.10R
HR EXEC AP*    CLOUDY    54  46  76 E7        30.06R
FRANKLIN*      LGT RAIN  53  51  93 NE8       30.06S
US460-WAKEFLD  LGT RAIN  52  51  97 VRB3      30.07R
$$

VAZ020-022-025-037-045-240300-
WEST CENTRAL AND SOUTHWEST VIRGINIA

CITY           SKY/WX    TMP DP  RH WIND       PRES   REMARKS
STAUNTON*      DRIZZLE   50  43  78 CALM      30.10R
WAYNESBORO*    CLOUDY    48  46  93 CALM      30.08R
HOT SPRINGS VA LGT RAIN  41  39  93 E12G20    30.04S VSB<1/4
LYNCHBURG      LGT RAIN  48  47  96 N8        30.09R
DANVILLE       LGT RAIN  50  50 100 NE12      30.03F
SOUTH BOSTON*  CLOUDY    51  49  95 NE6       30.05R
MARTINSVILLE   HVY RAIN  47  46  95 NE8       30.06R
ROANOKE        LGT RAIN  48  47  96 CALM      30.09R
BLACKSBURG     LGT RAIN  45  42  89 E12G18    30.07R
DUBLIN*        RAIN      45  41  86 E10       30.04S
MARION*        LGT RAIN  45  43  95 E12       30.05R
HILLSVILLE*    LGT RAIN  42  42 100 CALM      30.00R
RICHLANDS*     RAIN      46  45  98 E6        29.97R
WISE*          LGT RAIN  48  48 100 NE5       29.94S
ABINGDON*      RAIN      48  48  97 E12G17    29.97R
$$

MDZ021>025-VAZ099-100-240300-
SOUTHERN MARYLAND AND THE DELMARVA PENINSULA

CITY           SKY/WX    TMP DP  RH WIND       PRES   REMARKS
PATUXENT RIVER CLOUDY    55  47  74 E14       30.10R
BAY BRIDGE APT PTCLDY    55  46  71 E3        30.11S
LEONARDTOWN    CLOUDY    54  46  76 E5        30.12R
DOVER          MOCLDY    51  51 100 SE6       30.12R
GEORGETOWN     MOCLDY    51  46  83 MISG      30.13S
EASTON         CLOUDY    55  46  71 E3        30.14F
CAMBRIDGE      CLOUDY    54  48  82 E7        30.11S
SALISBURY      CLOUDY    51  47  86 NE6       30.12R
OCEAN CITY     CLOUDY    52  46  80 E10       30.12R
WALLOPS ISLAND LGT RAIN  53  50  89 NE13      30.11S
ACCOMACK*      CLOUDY    52  49  90 E8        30.09R
$$

NCZ012>017-030>032-240300-
NORTH CENTRAL AND EASTERN NORTH CAROLINA

CITY           SKY/WX    TMP DP  RH WIND       PRES   REMARKS
ROANOKE RAPIDS CLOUDY    52  52 100 NE7       30.04S
RALEIGH        CLOUDY    53  51  93 E16G22    29.99S
ELIZABETH CITY CLOUDY    56  55  97 NE20      30.02F
AHOSKIE*       LGT RAIN  52  51  97 N6        30.05R
EDENTON*       CLOUDY    57  54  90 NE8       30.02S
CURRITUCK*     CLOUDY    56  56 100 NE9G20    30.04S FOG
KILL DEVIL HLS CLOUDY    56  55  94 NE5       30.01R
MANTEO         CLOUDY    57  54  90 NE15G22   30.01R
CAPE HATTERAS  CLOUDY    64  61  90 NE10G21   29.96R FOG
TARBORO*       NOT AVBL
GOLDSBORO      CLOUDY    55  55 100 NE13      29.96S
WASHINGTON     CLOUDY    56  55  95 NE9G17    30.00S
GREENVILLE     CLOUDY    54  54 100 NE8       30.02S FOG
NEW BERN       CLOUDY    59  58  96 NE9       29.98R
WILMINGTON     CLOUDY    62  61  96 NE12      29.91S
$$

VAZ048-240300-
ELSEWHERE

CITY           SKY/WX    TMP DP  RH WIND       PRES   REMARKS
HARRISBURG PA  CLOUDY    57  47  69 S5        30.09R
BALTIMORE      CLOUDY    54  47  77 CALM      30.10S
ANNAPOLIS      PTCLDY    58  48  69 E5        30.10R
ANDREWS AFB    CLOUDY    54  46  75 CALM      30.10R
PHILADELPHIA   MOCLDY    53  45  74 S5        30.14R
HENDERSON NC   LGT RAIN  49  47  94 NE13      30.02S
GREENSBORO     LGT RAIN  49  49 100 NE13      29.98R FOG
ROCKY MOUNT    CLOUDY    53  53 100 NE9       30.01S
$$

VAZ100-240300-
MARINE

STATION/POSITION TIME  TEMP    WIND        PRES    WAVE   SWELL
                       AIR SEA DIR/SP/G            HT/PER HT/PER
                 (UTC) (F)     (DEG/KT/KT) (MB)    (FT/S) (FT/S)
CAPE MAY NJ      0142   50 56  110/  3/  3 1020.2R
LEWES DE         0148          100/  5/  6   N/A
15NM E FENWICK I 0150   51 52   60/ 10/ 12 1020.8R   4/11   3/11
OCEAN-CITY-INLET 0148           90/  6/  8   N/A
WACHAPREAGUE VA  0142   53 60   40/ 16/ 20 1018.4R
THOMAS POINT MD  0200   57 59   50/  5/  6   N/A
GOOSES REEF MD   0200   56 55  100/ 12/ 14 1020.0    1/ 2
COVE POINT MD    0142   55     110/ 12/ 14 1019.7F
SOLOMONS ISLAND  0148           90/ 13/ 15   N/A
BISHOPS HEAD MD  0142   54 61   70/ 12/ 13 1019.6R
PINEY POINT MD   0148          120/ 12/ 15   N/A
POTOMAC MD       0200   56 61  100/ 14/ 16 1018.3    2/ 3
CAMBRIDGE MD     0142   55 63  100/  7/ 12 1018.5F
LEWISETTA VA     0142   57 62  110/ 14/ 16 1019.0R
RAPPAHANNOCK LGT 0148           30/ 16/ 18 1019.2R
STINGRAY PT      0200   55 62   90/ 16/ 17 1018.9    2/ 3
YORK RVR RNG VA  0142   55      70/ 17/ 20 1017.8R
YORKTOWN VA      0142   56 64   80/ 19/ 21 1018.0R
JAMESTOWN VA     0200   53 69   50/  4/  6   N/A     0
DOMINION TERM VA 0142   56      60/ 11/ 17 1017.9R
KIPTOPEKE VA     0148      61   70/  9/ 16   N/A
CHES BAY BRIDGE  0136   55 61   60/ 22/ 24 1017.2S
CAPE HENRY VA    0136   55      50/ 21/ 24   N/A
WILLOUBY STN VA  0148           60/ 17/ 19   N/A
S CRANEY ISL VA  0136   56      80/ 12/ 16 1017.2R
CAPE HENRY BUOY  0142      55                N/A     5/ 5   2/11
1ST LANDING BUOY 0200   55 60              1017.7    3/ 4
CAPE CHARLES BUO 0151      57                N/A     5/11   2/11
64NM E OF VA BCH 0150   55 53   30/ 16/ 19 1016.8R   6/ 9   3/ 9
DUCK PIER NC     0136   56 62   30/ 19/ 23 1016.0S
44100 DUCK FRF   0135      55                N/A     6/ 6   2/11
44056 DUCK FRF   0130      60                N/A     6/ 6   2/11
OREGON INLET NC  0148           20/ 15/ 20   N/A
HATTERAS NC      0136   64 68   40/ 14/ 21 1014.1R
DIAMOND SHLS NC  0150   71 76   60/ 14/ 17 1013.2R   6/10   5/10
CAPE LOOKOUT NC  0200   65      30/ 19/ 21 1013.5F
$$




USA.gov is the U.S. government's official web portal to all federal, state and local government web resources and services.